TimeMST,TemperatureF,Dew PointF,Humidity,Sea Level PressureIn,VisibilityMPH,Wind Direction,Wind SpeedMPH,Gust SpeedMPH,PrecipitationIn,Events,Conditions,WindDirDegrees,DateUTC
12:15 AM,39.2,35.6,87,30.17,10.0,Calm,Calm,-,N/A,,Scattered Clouds,0,2012-11-19 07:15:00
12:35 AM,37.4,33.8,87,30.17,10.0,Calm,Calm,-,N/A,,Clear,0,2012-11-19 07:35:00
12:55 AM,37.4,35.6,93,30.17,10.0,Calm,Calm,-,N/A,,Clear,0,2012-11-19 07:55:00
1:15 AM,35.6,33.8,93,30.18,10.0,Calm,Calm,-,N/A,,Scattered Clouds,0,2012-11-19 08:15:00
1:35 AM,37.4,35.6,93,30.18,10.0,ESE,4.6,-,N/A,,Scattered Clouds,120,2012-11-19 08:35:00
1:55 AM,39.2,35.6,87,30.18,10.0,Calm,Calm,-,N/A,,Partly Cloudy,0,2012-11-19 08:55:00
2:15 AM,37.4,33.8,87,30.18,10.0,ESE,4.6,-,N/A,,Partly Cloudy,110,2012-11-19 09:15:00
2:35 AM,39.2,33.8,81,30.19,10.0,SE,5.8,-,N/A,,Partly Cloudy,140,2012-11-19 09:35:00
2:55 AM,37.4,33.8,87,30.20,10.0,Calm,Calm,-,N/A,,Clear,0,2012-11-19 09:55:00
3:15 AM,37.4,33.8,87,30.20,10.0,ESE,4.6,-,N/A,,Clear,120,2012-11-19 10:15:00
3:35 AM,37.4,33.8,87,30.20,10.0,ESE,4.6,-,N/A,,Mostly Cloudy,110,2012-11-19 10:35:00
3:55 AM,37.4,33.8,87,30.20,10.0,SE,4.6,-,N/A,,Scattered Clouds,130,2012-11-19 10:55:00
4:15 AM,39.2,33.8,81,30.20,10.0,ESE,8.1,-,N/A,,Partly Cloudy,120,2012-11-19 11:15:00
4:35 AM,39.2,33.8,81,30.20,10.0,SSE,3.5,-,N/A,,Partly Cloudy,160,2012-11-19 11:35:00
4:55 AM,37.4,33.8,87,30.21,10.0,ESE,5.8,-,N/A,,Partly Cloudy,120,2012-11-19 11:55:00
5:15 AM,37.4,33.8,87,30.21,10.0,ESE,6.9,-,N/A,,Clear,110,2012-11-19 12:15:00
5:35 AM,39.2,33.8,81,30.22,10.0,SE,6.9,-,N/A,,Clear,130,2012-11-19 12:35:00
5:55 AM,37.4,33.8,87,30.22,10.0,SSE,4.6,-,N/A,,Scattered Clouds,150,2012-11-19 12:55:00
6:35 AM,37.4,32.0,81,30.23,10.0,SSE,3.5,-,N/A,,Partly Cloudy,150,2012-11-19 13:35:00
6:55 AM,37.4,33.8,87,30.23,10.0,ESE,5.8,-,N/A,,Mostly Cloudy,110,2012-11-19 13:55:00
7:47 AM,39.2,33.8,81,30.25,15.0,Variable,3.5,-,N/A,,Mostly Cloudy,0,2012-11-19 14:47:00
8:47 AM,42.8,35.6,76,30.27,15.0,SE,6.9,-,N/A,,Mostly Cloudy,140,2012-11-19 15:47:00
9:50 AM,46.4,39.2,76,30.28,15.0,SE,4.6,-,N/A,,Mostly Cloudy,140,2012-11-19 16:50:00
11:50 AM,51.8,37.4,58,30.28,15.0,Calm,Calm,-,N/A,,Mostly Cloudy,0,2012-11-19 18:50:00
12:55 PM,55.4,35.6,47,30.25,15.0,Variable,4.6,-,N/A,,Mostly Cloudy,0,2012-11-19 19:55:00
1:47 PM,57.2,35.6,44,30.23,15.0,Variable,5.8,-,N/A,,Scattered Clouds,0,2012-11-19 20:47:00
2:47 PM,57.2,33.8,41,30.23,15.0,Variable,4.6,-,N/A,,Scattered Clouds,0,2012-11-19 21:47:00
3:56 PM,55.4,35.6,47,30.23,15.0,Calm,Calm,-,N/A,,Scattered Clouds,0,2012-11-19 22:56:00
4:50 PM,53.6,35.6,51,30.24,15.0,Calm,Calm,-,N/A,,Scattered Clouds,0,2012-11-19 23:50:00
5:50 PM,46.4,35.6,66,30.24,15.0,Calm,Calm,-,N/A,,Scattered Clouds,0,2012-11-20 00:50:00
6:50 PM,46.4,35.6,66,30.26,15.0,Calm,Calm,-,N/A,,Scattered Clouds,0,2012-11-20 01:50:00
7:50 PM,41.0,33.8,76,30.27,15.0,Calm,Calm,-,N/A,,Partly Cloudy,0,2012-11-20 02:50:00
8:50 PM,42.8,35.6,76,30.26,15.0,Calm,Calm,-,N/A,,Partly Cloudy,0,2012-11-20 03:50:00
9:15 PM,39.2,35.6,87,30.26,10.0,ESE,3.5,-,N/A,,Clear,110,2012-11-20 04:15:00
9:35 PM,39.2,35.6,87,30.27,10.0,South,3.5,-,N/A,,Clear,190,2012-11-20 04:35:00
9:55 PM,42.8,35.6,76,30.28,10.0,Calm,Calm,-,N/A,,Clear,0,2012-11-20 04:55:00
10:15 PM,41.0,33.8,76,30.28,10.0,Calm,Calm,-,N/A,,Clear,0,2012-11-20 05:15:00
10:35 PM,39.2,32.0,75,30.28,10.0,Calm,Calm,-,N/A,,Clear,0,2012-11-20 05:35:00
10:55 PM,39.2,33.8,81,30.28,10.0,SE,3.5,-,N/A,,Clear,130,2012-11-20 05:55:00
11:15 PM,39.2,33.8,81,30.28,10.0,Calm,Calm,-,N/A,,Clear,0,2012-11-20 06:15:00
11:35 PM,39.2,33.8,81,30.28,10.0,SSE,5.8,-,N/A,,Clear,150,2012-11-20 06:35:00
11:55 PM,39.2,33.8,81,30.28,10.0,SE,9.2,-,N/A,,Clear,140,2012-11-20 06:55:00